SAEZSAZM

Guest
Details From SAEZ - Ministro Pistarini (ezeiza)
To SAZM - Mar Del Plata Brig Gen D Bartolome
Flight Number -
Tags Decoded
Created
Modified
Stats Distance 193 nm / 357 km
Max Altitude 0 ft / 0 m
Waypoints 2
Social Downloads 5
Likes 0
Share VATSIM

Download

Looking for another format? Having issues loading an existing format? Contact us
Advertisement - Login to hide

Notes

Decoded

Route

SAEZ SAZM

ID Type Via Altitude Latitude Longitude Leg Dist Tot Dist Heading (true) Name
O SAEZ APT - 0 ft / 0 m -34.80841˚ -58.53386˚ - 0 nm - -
O SAZM APT - 0 ft / 0 m -37.92886˚ -57.58393˚ 192 nm 192 nm 167° / 166° -

Altitude Profile

Advertisement - Login to hide

Weather


0- 5 10 15 20 25 30 35+ Temperature / ° C

Clouds and Precipitation
Forecast for 2018-05-23 00:00 UTC. Updated 3 hours ago

Ground ~20,000 ft ~40,000 ft Winds

SAEZ

Details ICAO SAEZ (EZE)
Name Ministro Pistarini (Ezeiza)
Region Argentina
Timezone America/Argentina/Buenos_Aires (UTC-3.0)
Stats Elevation 66 ft / 20 m (AMSL)
Location -34.821380° -58.532731°
Runways 2
Magnetic Variation 8.796° W

METAR

SAEZ 230200Z 31005KT 7000 NSC 09/05 Q1020 NOSIG

Decode

TAF

TAF SAEZ 222300Z 2300/2324 30005KT CAVOK TX17/2318Z TN03/2310Z

Decode

Departure Runways

ID Width Length Bearing (true) Bearing (mag) Surface Threshold Offset Overrun Length
11 190 ft / 58 m 10,778 ft / 3,285 m 102.20° 111.00° Asphalt 0 ft / 0 m 0 ft / 0 m
17 151 ft / 46 m 9,153 ft / 2,790 m 163.98° 172.78° Asphalt 0 ft / 0 m 98 ft / 30 m
29 190 ft / 58 m 10,778 ft / 3,285 m 282.18° 290.98° Asphalt 0 ft / 0 m 115 ft / 35 m
35 151 ft / 46 m 9,153 ft / 2,790 m 343.98° 352.78° Asphalt 984 ft / 300 m 1,024 ft / 312 m

SAZM

Details ICAO SAZM (MDQ)
Name Mar Del Plata Brig Gen D Bartolome
Region Argentina
Timezone America/Argentina/Buenos_Aires (UTC-3.0)
Stats Elevation 71 ft / 22 m (AMSL)
Location -37.934190° -57.573395°
Runways 1
Magnetic Variation 7.644° W

METAR

SAZM 230200Z 27004KT CAVOK 08/05 Q1019

Decode

TAF

TAF SAZM 222300Z 2300/2324 25010KT 9999 SCT030 TX17/2318Z TN07/2310Z BECMG 2304/2306 30005KT 6000 NSC TEMPO 2308/2311 4000 BR BECMG 2313/2314 23015KT 9999 SCT025

Decode

Destination Runways

ID Width Length Bearing (true) Bearing (mag) Surface Threshold Offset Overrun Length
13 197 ft / 60 m 7,204 ft / 2,196 m 122.66° 130.30° Asphalt 0 ft / 0 m 196 ft / 60 m
31 197 ft / 60 m 7,204 ft / 2,196 m 302.65° 310.29° Asphalt 0 ft / 0 m 0 ft / 0 m

Approach Navaids

Runway Type Ident Frequency Range Bearing (true) Bearing (mag) Slope Elevation
13 Localiser MP 109.50 MHz 18 nm / 33 km 122.49° 130.14° - 71 ft / 22 m (AMSL)
13 Glidescope MP 109.50 MHz 10 nm / 19 km 122.66° 130.30° 3.00° 71 ft / 22 m (AMSL)
13 DME MP 109.50 MHz 18 nm / 33 km - - - 70 ft / 21 m (AMSL)

Popular Alternatives